Simultaneous Nadir Overpasses (SNOs) Predictions

Prediction of SNOs between NOAA-19 and TERRA Satellite Orbit:

Table of predicted SNOs for the next 14.0 days since TLE Epoch: 4/27/2024
Index Date (NOAA-19) Time (NOAA-19) Lat,Lon (NOAA-19) SZA (NOAA-19 ) Date (TERRA) Time (TERRA) Lat,Lon (TERRA) SZA (TERRA ) Distance(km) Time Diff (sec)
1 04/28/2024 10:24:56 -79.62,-138.51 114.26 04/28/2024 10:24:59 -79.61,-138.63 114.27 2.66 3
2 04/30/2024 13:24:04 -79.51, 175.72 115.07 04/30/2024 13:25:01 -79.51, 175.63 115.06 1.89 57
3 04/30/2024 14:14:55 79.63, -15.85 65.11 04/30/2024 14:14:18 79.64, -15.84 65.10 0.43 37
4 05/02/2024 17:14:01 79.53, -61.59 64.32 05/02/2024 17:14:18 79.53, -61.58 64.33 0.44 17
5 05/04/2024 20:13:08 79.38,-107.67 63.49 05/04/2024 20:14:18 79.39,-107.53 63.53 3.13 70
6 05/04/2024 21:04:05 -79.56, 61.26 116.25 05/04/2024 21:03:35 -79.56, 61.27 116.26 0.16 30
7 05/07/2024 00:03:10 -79.48, 15.77 116.96 05/07/2024 00:03:33 -79.46, 15.62 116.98 3.19 23
8 05/07/2024 00:54:01 79.58,-175.95 63.19 05/07/2024 00:52:51 79.58,-175.96 63.17 0.53 70
9 05/09/2024 03:02:32 -78.82, -34.23 118.43 05/09/2024 03:03:46 -78.72, -33.77 118.50 15.52 74



Historial Predications of SNOs between NOAA-19 and TERRA
